SL-8 R/B (11574 NORAD) Tracking and Keplerian Element Data

This shows tracking and keplerian element data for the satellite.

Feedback or suggestion? Click here.




ElementValue
Catalog11574
NameSL-8 R/B
Epoch Orbit32267
Epoch Day12.69682744
Epoch Year2024
RAAN106.7726
Inclination74.0695
Eccentricity0.0014598
Argument of Perigee121.7463
Mean Anonmoly238.5118
Mean Motion14.41373456
Decay Rate5.68E-06
L11 11574U 79089B 24012.69682744 .00000568 00000+0 18331-3 0 9993
L22 11574 74.0695 106.7726 0014598 121.7463 238.5118 14.41373456322677



Live tracking and technical data element details for SL-8 R/B (NORAD 11574). SL-8 R/B can be tracked NOW for your location showing map with azimuth and elevation plus other details from your city location.







IsCatalogInMostPopularTable: catalog: 11574, numindb: 274
Update: records affected: 1



GetName: 11574 SL-8 R/B

Hit Count: updated at: Fri, 19 Apr 2024 12:25:35 GMT